SCP
2 1 1 1 1 1 1 0 0 0 0 0 0 0 0 0 0 0 0 0 1 1 1 1 2 2 2 2 2 2 2 1 1 1 1 1 1 1 1 1 1 1 1
1 1 1 1 1 1 1 0 0 0 0 0 0 0 0 0 0 0 0 0 1 1 1 1 1 2 2 2 2 2 2 1 1 1 1 1 1 1 1 1 1 1 1
1 1 1 1 1 1 1 1 0 0 0 0 0 0 0 0 0 0 0 0 0 1 1 1 2 2 2 2 2 2 2 1 1 1 1 1 1 1 1 1 1 1 1
1 1 1 1 1 1 1 1 1 0 0 0 0 0 0 0 0 0 0 0 0 1 1 2 2 3 2 2 1 1 1 1 1 1 1 1 1 1 1 1 1 1 1
1 1 1 1 1 1 1 1 1 1 1 1 1 1 1 0 0 0 0 0 0 1 1 2 2 2 2 1 1 1 1 1 1 1 1 1 1 1 1 1 1 1 1
1 1 1 1 1 1 1 1 1 1 1 1 1 1 1 1 1 1 1 1 1 1 1 1 1 1 1 1 1 1 1 1 1 1 1 1 1 1 1 1 1 1 1
1 1 1 1 1 2 2 2 2 1 1 1 1 1 1 1 1 1 1 1 1 1 1 0 0 1 1 1 1 1 0 1 1 1 1 1 1 1 1 1 1 1 1
1 1 1 2 2 2 2 2 2 2 2 2 2 2 2 1 1 1 2 2 1 1 1 1 0 0 0 1 1 0 0 0 1 1 1 1 1 1 1 1 0 0 0
1 1 2 2 2 3 3 3 3 2 2 2 2 3 3 2 2 1 1 1 2 2 1 1 1 1 0 0 0 0 0 1 1 1 1 1 1 1 1 1 1 0 0
2 2 2 2 3 3 4 3 3 3 3 3 3 4 4 3 2 2 2 1 1 2 2 2 1 1 1 0 0 0 1 1 1 1 1 1 1 1 1 1 1 1 1
2 2 2 3 4 4 4 4 4 5 5 5 5 5 5 4 4 4 3 2 2 2 2 2 2 1 1 1 1 0 0 0 0 1 1 1 1 1 1 1 1 1 1
2 2 2 3 4 4 4 4 5 6 6 7 7 6 6 6 5 5 4 3 3 2 1 1 2 2 1 1 1 0 0 0 0 0 1 1 1 1 1 1 1 1 1
2 2 2 3 4 4 4 4 5 6 7 7 7 6 6 5 5 5 5 4 3 1 1 1 1 1 1 1 1 1 0 0 0 0 0 0 1 1 1 1 1 1 1
3 3 3 3 4 4 4 4 5 5 5 5 5 4 4 4 4 4 3 2 1 1 0 0 0 1 1 1 1 0 0 0 0 0 0 0 0 0 1 1 1 1 1
4 4 3 3 3 4 3 3 3 3 3 3 2 2 2 2 2 2 2 1 1 0 0 0 0 0 1 1 0 0 0 0 0 0 0 0 0 0 0 0 0 0 0
5 4 4 3 3 3 3 3 2 2 2 1 1 1 1 1 1 1 1 0 0 0 0 0 0 0 0 0 0 0 0 0 0 0 0 0 0 0 0 0 0 0 0
4 4 4 3 3 3 3 2 2 2 2 2 2 1 1 1 1 1 0 0 0 0 0 0 0 0 0 0 0 0 0 0 0 0 0 0 0 0 0 0 0 0 0
4 4 4 3 3 3 3 2 2 2 2 2 2 2 1 1 1 1 1 0 0 0 0 0 0 0 0 0 0 0 0 0 0 0 0 0 0 0 0 0 0 0 0
3 3 3 3 3 3 3 2 2 2 2 2 2 2 2 1 1 1 1 0 0 0 0 0 0 0 0 0 0 0 0 0 0 0 0 0 0 0 0 0 0 0 0
2 2 3 3 3 3 2 2 1 1 1 2 2 2 1 1 0 1 1 1 0 0 0 0 0 0 0 0 0 0 0 0 0 0 0 0 0 0 0 0 0 0 0
1 2 2 2 2 2 2 1 1 1 1 1 1 1 1 1 0 0 0 0 0 0 0 0 0 0 0 0 0 0 0 0 0 0 0 0 0 0 0 0 0 0 0
1 1 2 2 2 2 1 1 1 1 1 1 1 1 1 1 0 0 0 0 0 0 0 0 0 0 0 0 0 0 0 0 0 0 0 0 0 0 0 0 0 0 0
1 1 1 2 2 2 1 1 1 1 1 1 1 1 1 1 0 0 0 0 0 0 0 0 0 0 0 0 0 0 0 0 0 0 0 0 0 0 0 0 0 0 0
1 1 1 1 2 2 1 0 0 0 0 0 0 0 1 0 0 0 0 0 0 0 0 0 0 0 0 0 0 0 0 0 0 0 0 0 0 0 0 0 0 0 0
1 1 1 1 1 1 1 0 0 0 0 0 0 0 0 0 0 0 0 0 0 0 0 0 0 0 0 0 0 0 0 0 0 0 0 0 0 0 0 0 0 0 0
1 1 1 1 1 1 1 0 0 0 0 0 0 0 0 0 0 0 0 0 0 0 0 0 0 0 0 0 0 0 0 0 0 0 0 0 0 0 0 0 0 0 0
Wind_Speed
1 1 0 0 1 1 1 1 1 1 2 2 2 3 3 3 3 2 2 7 7 7 8 8 8 8 8 7 7 7 7 6 7 7 7 7 7 8 8 8 9 9 9
1 1 1 0 0 0 1 1 1 2 1 1 2 3 3 3 3 3 2 4 7 7 7 7 7 7 7 7 7 7 6 6 6 7 6 6 6 6 7 9 10 9 9
2 1 1 1 0 0 1 1 1 2 1 2 2 2 3 3 3 3 3 2 2 5 6 6 6 6 6 6 6 6 6 6 6 6 6 6 6 6 6 7 9 9 9
2 2 1 1 0 1 1 1 1 1 1 1 1 1 2 2 3 3 2 2 1 1 3 5 6 6 6 6 6 6 5 5 5 6 6 6 6 5 5 5 6 7 9
2 1 1 0 1 1 1 1 1 2 1 1 1 1 1 2 2 3 2 2 2 2 1 4 6 5 5 5 5 5 5 4 5 5 6 6 6 6 6 5 5 6 7
1 1 1 1 1 2 1 1 1 1 1 1 1 1 1 1 1 2 2 2 2 2 2 2 2 3 4 4 4 4 5 4 4 5 6 6 6 6 6 5 5 5 6
1 2 1 1 1 2 1 1 1 1 1 1 2 2 2 1 0 1 1 2 2 2 2 2 1 1 1 4 4 4 5 5 5 5 6 6 5 5 5 5 5 4 4
2 2 1 1 1 2 2 1 1 1 0 1 2 2 2 3 2 0 1 2 2 2 2 3 2 2 1 1 2 4 4 4 5 5 6 5 5 5 4 4 5 5 5
1 1 1 1 1 2 1 1 2 2 1 0 1 3 2 2 1 2 0 0 1 1 2 1 2 2 2 1 1 2 3 4 4 5 5 5 5 5 5 5 5 5 5
2 1 1 1 1 1 2 2 2 2 2 1 1 0 2 3 2 0 1 1 0 1 1 2 2 2 2 1 1 2 2 3 4 4 5 5 6 6 6 6 5 5 5
1 2 1 2 1 1 1 1 1 1 2 2 1 0 0 0 1 2 1 1 1 1 1 1 1 2 2 2 2 2 3 3 3 3 4 5 5 6 6 6 6 6 6
1 1 1 1 2 1 1 2 1 2 1 2 1 1 2 1 1 2 2 1 1 1 1 0 0 1 1 1 2 3 4 3 3 3 4 4 5 5 6 6 6 6 6
1 2 1 2 2 2 2 1 1 1 2 2 2 2 1 2 2 2 2 1 1 0 1 1 1 1 1 1 1 3 3 3 3 3 4 4 5 5 5 6 6 6 6
2 2 1 1 2 1 1 1 1 1 1 1 2 2 1 1 1 2 3 3 2 0 0 2 1 1 1 1 1 2 2 3 3 3 4 4 4 5 5 5 5 5 5
1 1 1 1 1 1 1 1 1 1 1 1 1 1 1 1 1 1 2 3 4 2 2 2 1 1 1 1 2 1 2 2 3 3 3 4 4 5 5 5 5 5 4
1 1 1 1 1 1 1 1 1 0 0 1 0 1 1 1 0 1 1 2 2 4 2 2 2 1 1 1 1 2 2 2 3 4 4 4 5 5 5 5 5 5 5
2 2 1 1 1 1 1 1 1 0 0 0 0 1 1 1 0 0 1 1 2 3 2 1 0 0 0 0 0 1 1 2 2 4 4 5 5 5 5 5 5 5 5
2 2 2 2 2 1 1 1 1 1 1 1 1 0 1 1 0 0 1 1 1 2 3 2 0 0 0 1 1 1 1 1 2 3 4 4 4 5 5 5 5 5 5
2 2 2 2 2 1 1 1 1 1 1 1 1 1 1 1 1 0 1 1 1 1 2 3 1 0 0 0 1 1 1 1 2 2 2 3 4 4 5 5 6 6 6
3 2 2 2 2 2 1 1 1 1 1 1 1 1 2 2 2 2 1 1 1 2 2 2 1 0 0 0 1 0 1 2 2 2 2 2 2 3 4 4 5 5 6
2 2 2 2 1 1 1 1 1 1 1 0 0 1 1 2 2 2 2 2 2 2 2 2 1 0 0 0 1 1 1 2 2 1 1 2 2 2 2 3 4 5 5
2 2 2 2 2 1 1 1 1 1 1 1 1 1 1 1 1 1 2 3 4 4 3 2 2 2 2 2 1 1 1 0 2 2 0 2 1 2 2 2 4 4 5
2 2 2 2 2 1 1 1 1 1 1 1 1 1 0 0 0 0 0 1 1 2 5 4 4 4 3 3 3 2 2 2 3 2 1 2 1 2 3 3 4 4 4
2 1 2 2 2 2 2 2 1 1 1 1 1 2 1 1 1 1 1 0 1 1 2 3 4 4 4 4 4 4 4 2 2 1 1 1 2 2 2 2 3 3 3
1 1 2 2 2 1 2 2 2 1 1 1 1 1 1 1 1 1 2 0 1 2 2 1 2 3 3 3 3 2 1 1 1 2 1 1 2 2 2 2 3 3 4
1 1 1 2 3 2 2 2 2 1 1 1 1 1 1 1 1 1 2 2 2 2 1 1 1 1 1 2 3 3 3 2 1 2 2 1 1 0 2 2 2 2 2
Wind_Direction
130 102 40 47 48 73 93 93 101 107 105 111 127 133 139 143 144 150 156 166 173 176 179 182 184 184 181 183 187 186 184 185 186 186 188 193 196 197 198 199 199 198 197
139 125 105 60 59 103 121 119 113 107 101 111 123 132 142 153 152 156 163 171 175 176 179 180 182 185 183 184 186 185 184 188 190 190 190 192 197 200 208 209 204 201 201
138 133 125 129 149 128 104 87 73 77 90 95 107 134 139 145 152 156 158 170 186 184 180 179 178 182 181 183 183 186 189 195 196 193 197 197 199 206 210 207 202 203 203
135 128 118 152 153 110 101 108 99 86 85 96 110 137 138 146 156 156 155 168 175 183 181 176 172 175 179 188 192 190 188 194 193 194 193 193 196 203 205 199 196 204 206
133 122 126 146 124 103 100 122 103 121 121 107 133 126 134 150 162 164 166 173 170 161 163 175 177 182 184 184 187 189 188 189 187 186 189 192 197 201 203 202 203 203 206
117 125 135 115 114 102 85 79 97 98 125 134 113 88 105 160 168 167 175 169 163 170 166 170 174 188 186 184 189 195 200 203 199 192 188 194 196 197 200 206 213 213 211
125 118 122 115 122 123 131 116 111 98 80 95 78 37 6 10 106 183 171 154 167 171 154 164 163 178 207 200 198 203 206 211 205 197 195 193 192 193 198 199 203 205 204
148 141 134 146 142 126 106 106 118 126 127 110 117 94 24 358 340 12 149 170 167 159 171 184 169 182 201 192 206 207 210 213 209 197 191 193 194 194 195 195 207 209 206
143 134 150 145 139 145 153 152 146 146 155 341 130 137 140 212 294 341 319 151 160 165 186 181 173 182 185 185 214 224 208 203 201 198 195 195 195 197 203 208 213 209 204
165 159 164 151 149 155 157 182 170 156 142 174 308 100 173 167 147 290 342 344 201 167 185 182 172 173 178 184 195 191 190 200 207 210 206 203 205 209 213 217 215 211 210
193 192 184 164 155 165 175 183 171 159 163 168 178 158 78 53 126 146 198 287 346 301 222 187 181 173 183 185 192 190 189 199 209 217 216 215 214 216 215 214 217 221 220
248 236 192 177 180 186 189 196 188 178 184 167 166 163 161 168 189 160 179 204 223 289 323 21 146 188 194 180 190 181 191 198 206 216 221 220 219 221 221 222 225 231 230
224 242 217 199 198 200 200 197 184 196 191 178 188 199 195 200 182 163 153 174 164 323 4 333 261 213 195 182 206 192 201 200 207 219 226 225 223 224 226 230 233 232 232
214 217 207 205 207 204 198 179 193 216 185 193 203 202 204 225 184 166 168 151 126 15 311 271 286 231 210 188 208 202 221 212 218 224 228 231 227 229 230 229 231 233 233
201 179 174 177 196 193 183 164 184 219 196 207 211 198 204 241 219 179 154 151 149 163 233 252 266 251 222 198 206 207 225 225 229 234 234 234 231 232 234 231 226 225 227
157 150 184 191 188 184 158 138 164 254 150 249 201 155 205 242 229 128 138 147 153 158 188 234 236 246 219 215 204 214 230 233 237 237 239 238 238 237 236 235 232 226 225
167 173 175 172 175 188 178 151 177 169 135 304 307 157 237 223 171 142 121 121 135 140 154 237 259 2 84 158 332 261 247 245 252 241 240 237 239 238 238 241 242 236 235
172 170 170 160 172 175 184 168 178 174 178 222 247 187 268 221 121 210 152 131 145 149 152 175 258 347 283 220 220 253 270 264 262 260 246 243 242 242 242 245 246 245 245
163 162 162 168 171 167 159 182 184 186 196 216 209 202 245 159 178 197 128 124 142 134 133 147 183 229 291 206 36 344 330 318 292 282 256 252 252 253 252 250 248 247 247
155 166 171 172 171 165 167 190 174 189 208 238 227 209 209 185 193 194 170 157 145 121 122 131 143 7 318 280 102 43 338 323 306 322 319 298 280 275 266 259 255 251 250
164 170 157 152 153 156 182 165 188 202 197 217 277 258 217 182 164 180 175 178 155 143 139 140 157 134 217 178 226 237 257 295 303 307 320 315 314 310 294 276 264 260 254
152 137 148 153 154 171 141 149 166 173 182 167 204 255 243 215 224 182 167 170 162 164 172 171 188 198 221 213 209 213 204 355 294 284 111 296 307 288 283 274 273 263 255
130 134 152 157 173 195 161 146 167 163 166 179 192 212 270 350 294 201 37 50 171 181 177 178 189 209 205 205 192 211 212 210 234 241 148 280 283 276 279 291 284 267 256
135 155 166 182 185 204 176 170 164 149 156 201 195 187 189 278 281 187 160 29 292 261 223 197 198 213 212 206 195 198 204 224 276 265 155 238 272 269 284 293 290 278 269
148 173 181 181 175 212 195 191 173 131 139 261 248 201 179 219 281 149 140 174 308 301 286 232 210 217 215 205 183 139 137 124 285 276 224 192 258 285 289 284 293 283 269
169 180 188 198 186 200 202 183 163 138 141 266 302 306 270 252 284 150 166 182 237 269 285 309 326 306 249 220 190 174 175 178 217 270 254 191 247 326 310 291 288 297 281